Regional Weather Roundup
Issued by NWS

Home | Current Version | Previous Version | Graphics & Text | Print | Product List | Glossary Off
Versions: 1 2 3 4 5 6 7 8 9 10 11 12 13 14 15 16 17 18 19 20 21 22 23 24 25 26 27 28 29 30 31 32 33 34 35 36 37 38 39 40 41 42 43 44 45 46 47 48 49 50

000
ASUS43 KTOP 010708
RWRKS

WEATHER ROUNDUP FOR KANSAS
NATIONAL WEATHER SERVICE GOODLAND KS
200 AM CDT TUE SEP 01 2015

NOTE:  "FAIR" INDICATES FEW OR NO CLOUDS BELOW 12,000 FEET WITH NO
SIGNIFICANT WEATHER AND/OR OBSTRUCTIONS TO VISIBILITY.

KSZ001>006-013>018-027>032-041>047-010800-
NORTHWEST KANSAS

CITY           SKY/WX    TMP DP  RH WIND       PRES   REMARKS
GOODLAND       TSTM      65  62  90 VRB5      29.96F
HAYS           CLEAR     75  52  43 S14       29.96S
HILL CITY      PTCLDY    77  54  44 S12       29.94S
RUSSELL        CLEAR     75  57  53 S15       29.95R
$$

KSZ061>065-074>080-084>089-010800-
SOUTHWEST KANSAS

CITY           SKY/WX    TMP DP  RH WIND       PRES   REMARKS
DODGE CITY     CLEAR     71  53  52 S14       30.01R
ELKHART          N/A     72  54  53 SW6         N/A
GARDEN CITY    PTCLDY    66  55  67 S9        30.00R
GREAT BEND     CLEAR     75  59  57 S16       29.97S
LIBERAL        MOCLDY    68  50  52 S8        30.02R
PRATT          CLEAR     73  59  60 MISG      30.01F
$$

KSZ066>073-081>083-090>101-010800-
SOUTHEAST KANSAS

CITY           SKY/WX    TMP DP  RH WIND       PRES   REMARKS
CHANUTE        CLEAR     73  69  87 S7        30.01S
COFFEYVILLE    CLEAR     74  69  85 S7        30.01R
HUTCHINSON     CLEAR     76  62  62 S10       30.00R
MEDICINE LODGE   N/A     74  62  66 SE7       29.99S
NEWTON         CLEAR     72  63  73 S9        30.02S
PARSONS        CLEAR     75  70  84 S5        30.02S
WICHITA INTL   PTCLDY    74  65  73 S9        29.99R
WICHITA JABRA  CLEAR     74  65  73 S10       29.99S
WICHITA MCCONL CLEAR     74  64  70 S10       30.00R
WINFIELD       CLEAR     75  64  68 S9        30.01R
$$

KSZ007>012-019>026-033>040-048>060-102>105-010800-
NORTHEAST KANSAS

CITY           SKY/WX    TMP DP  RH WIND       PRES   REMARKS
CONCORDIA      CLEAR     75  63  66 S16G25    29.93S
EMPORIA        CLEAR     73  68  84 S15       29.98F
LAWRENCE       CLEAR     75  69  81 S9        29.98S
MANHATTAN      CLEAR     77  67  71 SW14      29.95S
MARYSVILLE     CLEAR    N/A N/A N/A S7        29.95S
OLATHE IND     CLEAR     73  69  87 S8        30.01S
OLATHE EXE     CLEAR     74  69  85 S8        30.00S
SALINA         CLEAR     78  63  59 S15G24    29.95S
TOPEKA BILLARD CLEAR     76  69  79 S7        29.97S
TOPEKA FORBES  CLEAR     76  69  79 S7        29.98S
$$


USA.gov is the U.S. government's official web portal to all federal, state and local government web resources and services.